DELTA 1 DEB, 10706

Orbit data source: Space-Track

DELTA 1 DEB, 10706 is space debris in SSO originally from a launch on Thu, 29 Jul 1976 UTC launched from the Air Force Western Test Range (AFWTR). Debris objects in space refer to the collection of defunct objects orbiting the Earth. Examples of debris include non-operational satellites, rocket bodies, and fragments generated from explosions, collisions, or faulty payload assembly.

Loading next visibility...
Identifier
10706, 1976-077AB
Orbit
SSO
Country
Flag of USUS
Related business
Manufacturer
Unknown
Mission
Spacecraft
Bus & Motor
Unknown
Mass
Unknown
Launch date (UTC)
1976-07-29 (50 years ago)
Launch vehicle
Unknown
Launch site
Air Force Western Test Range (AFWTR)
Object type
Payload
Rocket body
Debris
Shape & HBR
Unknown shape, 0.1 m
Radar Cross Section
Small (<0.1 m²)

Expand to show TLE details & history
Last TLE update: 21 hours ago

TLE from 21 hours ago
0 DELTA 1 DEB
1 10706U 76077AB  26145.10084091 -.00000320  00000-0 -83181-3 0  9993
2 10706 101.5442   7.2968 0384665 190.4001 324.7873 12.83327113316513
Epoch: 2026-05-25T02:25Z
TLE epoch observation values (Epoch: 2026-05-25T02:25:12.654Z)
Latitude
26.89575°
Longitude
-85.78335°
Altitude
1,092.902 km
Speed
7.42 km/s
True Right ascension
12h 52m 51s
True Declination
26° 45' 49"
Sunlit
Object was in daylight at epoch
Visualization orbit readout
Latitude
Unknown
Longitude
Unknown
Altitude
Unknown
Speed
Unknown
Apparent Right ascension
Unknown
Apparent Declination
Unknown
Sunlit
N/A
Visualization observer readout
Local Sidereal Time
08:17:30
Azimuth
Unknown
Elevation
Unknown
Doppler factor
Unknown
Orbital elements
Apogee altitude
1,621.944 km
Perigee altitude
1,029.271 km
Semi-major axis
7,703.744 km
Eccentricity
0.03847
Inclination
101.5442°
RAAN
7.2968°
Arg. of periapsis
190.4001°
True anomaly
322.14282°
Mean anomaly
324.7873°
Eccentric anomaly
323.47557°
Mean motion
3.20989 °/min
Orbital period
112.15 mins
BSTAR
-0.00083181
Loading maneuver chart data...
Computing Atmospheric mass density...
Loading historical data...
Loading historical data...
Loading historical data...
Loading historical data...
Loading historical data...
Loading historical data...
Loading historical data...

Documentation

Showing up to 5 results
|